Flag for Norway Weather past 2 weeks in Lillesand, Norway

Now
58 °F

Cool.


Feels Like: 58 °F
Forecast: 54 / 72 °F
Wind: 1 mph from Northwest

Location: Kristiansand / Kjevik

Current Time: Jun 30, 2015 at 2:11:30 AM

Latest Report: Jun 30, 2015 at 1:00 AM


Visibility: N/A

Pressure: 30.06 "Hg

Humidity: 70%

Dew point: 48 °F

Location of LillesandLocation

Historic Weather in Lillesand — Graph

°F

Lillesand temperature yesterday

Maximum temperature yesterday: 68 °F (at 7:00 PM)
Minimum temperature yesterday: 56 °F (at 6:00 AM)
Average temperature yesterday: 61 °F

Past Weeks' High & Low Weather Summary

 TemperatureHumidityPressure
High68 °F (Jun 28, 12:00 PM)100% (Jun 28, 3:00 AM)30.15 "Hg (Jun 28, 3:00 AM)
Low44 °F (Jun 16, 5:00 AM)30% (Jun 15, 5:00 PM)29.64 "Hg (Jun 18, 5:00 PM)
Average57 °F68%29.88 "Hg
* Reported Midnight between Jun 14 and Jun 15 — Midnight between Jun 29 and Jun 30, Lillesand, Weather by CustomWeather, © 2015

Note: Actual official high and low records may vary slightly from our data, if they occured in-between our weather recording intervals... More about our weather records

Advertising

Lillesand weather history for previous 24 hours

 ConditionsComfort  
Time TempWeatherWind HumidityBarometerVisibility
12:00 AM
Tue, Jun 30
59 °FCool.3 mph68%30.05 "HgN/A
10:00 PM
Mon, Jun 29
63 °FMild.3 mph57%30.03 "HgN/A
9:00 PM64 °FMild.5 mph52%30.02 "HgN/A
8:00 PM65 °FMild.5 mph51%30.01 "HgN/A
7:00 PM68 °FMild.5 mph44%30.00 "HgN/A
6:00 PM68 °FMild.7 mph44%29.99 "HgN/A
5:00 PM68 °FMild.7 mph55%29.98 "HgN/A
4:00 PM65 °FMild.8 mph77%29.97 "HgN/A
3:00 PM66 °FMild.7 mph76%29.97 "HgN/A
2:00 PM63 °FMild.7 mph83%29.98 "HgN/A
1:00 PM62 °FMild.7 mph84%29.97 "HgN/A
12:00 PM61 °FCool.5 mph88%29.98 "HgN/A
11:00 AM60 °FCool.3 mph91%29.98 "HgN/A
10:00 AM59 °FCool.2 mph91%29.97 "HgN/A
9:00 AM59 °FCool.1 mph88%29.96 "HgN/A
8:00 AM57 °FCool.No wind90%29.95 "HgN/A
7:00 AM56 °FCool.1 mph95%29.94 "HgN/A
6:00 AM56 °FCool.2 mph95%29.94 "HgN/A
4:00 AM56 °FCool.3 mph93%29.95 "HgN/A
3:00 AM56 °FCool.3 mph93%29.96 "HgN/A
2:00 AM57 °FCool.5 mph93%29.97 "HgN/A
Weather by CustomWeather, © 2015

See weather overviewHow to use our weather pages